Regional Weather Roundup
Issued by NWS Goodland, KS

Home | Current Version | Previous Version | Graphics & Text | Print | Product List | Glossary On
Versions: 1 2 3 4 5 6 7 8 9 10 11 12 13 14 15 16 17 18 19 20 21 22 23 24 25 26 27 28 29 30 31 32 33 34 35 36 37 38 39 40 41 42 43 44 45 46 47 48 49 50
000
ASUS43 KGLD 021159
RWRGLD

GOODLAND FORECAST AREA HOURLY WEATHER ROUNDUP
NATIONAL WEATHER SERVICE GOODLAND KS
600 AM MDT TUE JUN 02 2015

...OFFICIAL OBSERVATIONS...

CITY           SKY/WX    TMP DP  RH WIND       PRES   REMARKS
GOODLAND KS    NOT AVBL
HILL CITY KS   NOT AVBL
IMPERIAL NEB   PTCLDY    58  55  90 S9        29.93R
MCCOOK NEB     CLOUDY    60  59  96 S8        29.91F
AKRON CO       PTCLDY    55  53  93 SE13      29.97F
BURLINGTON CO  MOCLDY    59  56  89 E15       29.97F
LIMON CO       NOT AVBL
$$

...UNOFFICIAL OBSERVATIONS...

CITY           SKY/WX    TMP DP  RH WIND       PRES   REMARKS
COLBY KS       CLEAR     61  59  94 SE12      29.97F
GOVE KS          N/A     66  32  28 MISG        N/A
NORTON KS      CLEAR     61  57  88 SE10      29.93S
SHARON SPRINGS   N/A     62  60  94 MISG        N/A
KIT CARSON CO    N/A     61  58  88 MISG        N/A
$$


USA.gov is the U.S. government's official web portal to all federal, state and local government web resources and services.